AirNav   ProFlight Series 2 Aviation Headset
 
 1074 users online  

4R9 Jeremiah Denton Airport
Dauphin Island, Alabama, USA

GOING TO DAUPHIN ISLAND?


FAA INFORMATION EFFECTIVE 16 JULY 2020

Location

FAA Identifier: 4R9
Lat/Long: 30-15-37.7700N 088-07-38.9000W
30-15.629500N 088-07.648333W
30.2604917,-88.1274722
(estimated)
Elevation: 5.3 ft. / 1.6 m (surveyed)
Variation: 02E (1985)
Time zone: UTC -5 (UTC -6 during Standard Time)
Zip code: 36528

Airport Operations

Airport use: Open to the public
Activation date: 02/1967
Control tower: no
ARTCC: HOUSTON CENTER
FSS: ANNISTON FLIGHT SERVICE STATION
NOTAMs facility: ANB (NOTAM-D service available)
Attendance: UNATNDD
Wind indicator: lighted
Segmented circle: yes
Lights: ACTVT PAPI RWY 12 & 30; MIRL RWY 12/30 - CTAF.
Beacon: white-green (lighted land airport)
Operates sunset to sunrise.

Airport Communications

CTAF/UNICOM: 122.8
WX AWOS-3PT at CQF (18 nm NE): 118.425 (251-928-3242)

Nearby radio navigation aids

VOR radial/distance  VOR name  Freq  Var
BFMr186/21.5BROOKLEY VORTAC112.8004E
SJIr152/30.4SEMMES VORTAC115.3005E

 
NDB name  Hdg/Dist  Freq  Var  ID
WISLE164/31.424801WMOB -- --- -...

Airport Services

Parking: tiedowns
Airframe service: NONE
Powerplant service: NONE
Bottled oxygen: NONE
Bulk oxygen: NONE

Runway Information

Runway 12/30

Dimensions: 3000 x 80 ft. / 914 x 24 m
Surface: asphalt, in fair condition
Weight bearing capacity: 
Single wheel: 30.0
Runway edge lights: medium intensity
RUNWAY 12  RUNWAY 30
Latitude: 30-15.765500N30-15.493500N
Longitude: 088-07.886500W088-07.410167W
Elevation: 4.7 ft.5.3 ft.
Traffic pattern: leftleft
Displaced threshold: 202 ft.140 ft.
Markings: basic, in fair conditionbasic, in fair condition
Visual slope indicator: 2-light PAPI on left (3.00 degrees glide path)2-light PAPI on right (3.50 degrees glide path)
Touchdown point: yes, no lightsyes, no lights
Obstructions: none
APCH SLOPE 50:1 TO DSPLCD THR.
45 ft. trees, 1119 ft. from runway, 19 ft. left of centerline, 20:1 slope to clear
APCH SLOPE 27:1 TO DSPLCD THR.

Airport Ownership and Management from official FAA records

Ownership: Publicly-owned
Owner: MOBILE COUNTY
205 GOVERNMENT ST
MOBILE, AL 36644
Phone 251-824-2831
Manager: WILLIAM MEREDITH
11562 FAIRWAY DR
IRVINGTON, AL 36544
Phone 251-824-2831

Airport Operational Statistics

Aircraft operations: avg 70/week *
60% transient general aviation
40% local general aviation
* for 12-month period ending 31 May 2019

Additional Remarks

BIRDS ON & INVOF ARPT.
EXTSV BANNER TOW OPNS ARND IS CST LN & N TO MOBILE.
FOR CD CTC MOBILE APCH AT 251-662-6236, WHEN APCH CLSD CTC HOUSTON ARTCC AT 281-230-5622.

Instrument Procedures

There are no published instrument procedures at 4R9.

Some nearby airports with instrument procedures:

2R5 - St Elmo Airport (16 nm NW)
KCQF - H L Sonny Callahan Airport (18 nm NE)
KBFM - Mobile Downtown Airport (22 nm N)
KJKA - Jack Edwards National Airport (24 nm E)
KPQL - Trent Lott International Airport (24 nm NW)
 
Loc | Ops | Rwys | IFR | FBO | Links
Com | Nav | Svcs | Stats | Notes

Continental Services
AirBoss

 
Area around 4R9 (Jeremiah Denton Airport)
 
Road maps at: MapQuest Bing Google
 
Aerial photo
WARNING: Photo may not be current or correct
Aerial photo of 4R9 (Jeremiah Denton Airport)
Photo taken 02-May-2015
looking southwest.

Do you have a better or more recent aerial photo of Jeremiah Denton Airport that you would like to share? If so, please send us your photo.

 
Sectional chart

 
Airport distance calculator
Flying to Jeremiah Denton Airport? Find the distance to fly.

From to 4R9

Sunrise and sunset
Times for 06-Aug-2020
 Local
(UTC-5)
 Zulu
(UTC)
Morning civil twilight05:5010:50
Sunrise06:1611:16
Sunset19:4100:41
Evening civil twilight20:0601:06

Current date and time
Zulu (UTC)  07-Aug-2020 00:41:21
Local (UTC-5)  06-Aug-2020 19:41:21
 
METAR
KCQF 
18nm NE 
070015Z AUTO 00000KT 10SM CLR 28/22 A2997 RMK AO2
KBFM 
22nm N 
062353Z 18003KT 10SM BKN060 32/23 A2997 RMK AO2 SLP147 T03220228 10344 20317 53000
KJKA 
24nm E 
070015Z AUTO 22003KT 10SM CLR 30/22 A2997 RMK AO2 T02950222
KPQL 
24nm NW 
062353Z 00000KT 10SM CLR 32/20 A2996 RMK AO2 SLP145 T03220200 10367 20322 53002
KMOB 
26nm N 
062356Z 26003KT 10SM FEW050 SCT100 BKN250 30/18 A2997 RMK AO2 SLP146 T03000183 10333 20300 53002 $
TAF
KBFM 
22nm N 
061720Z 0618/0718 15006KT P6SM FEW050 FEW100 FM062100 18009KT P6SM FEW050 FEW100 FM070000 21007KT P6SM FEW250 FM070600 VRB04KT P6SM FEW250 FM071300 VRB05KT P6SM FEW150
KMOB 
26nm N 
061720Z 0618/0718 26007KT P6SM FEW050 FEW100 FM062100 24007KT P6SM FEW050 FEW100 FM070000 22005KT P6SM FEW250 FM070600 VRB03KT P6SM FEW250 FM071300 VRB05KT P6SM FEW150
NOTAMs
Click for the latest NOTAMs
NOTAMs are issued by the DoD/FAA and will open in a separate window not controlled by AirNav.

 

 
 

Would you like to see your business listed on this page?

 If your business provides an interesting product or service to pilots, flight crews, aircraft, or users of the Jeremiah Denton Airport, you should consider listing it here.  To start the listing process, click on the button below
 
Add a business
 

Other Pages about Jeremiah Denton Airport

gulfinfo.com/...
 
Update a link
 
Copyright © AirNav, LLC. All rights reserved. Privacy Policy  Contact